DELTA 1 DEB, 7044

Orbit data source: Space-Track

DELTA 1 DEB, 7044 is space debris in SSO originally from a launch on Tue, 06 Nov 1973 UTC launched from the Air Force Western Test Range (AFWTR). Debris objects in space refer to the collection of defunct objects orbiting the Earth. Examples of debris include non-operational satellites, rocket bodies, and fragments generated from explosions, collisions, or faulty payload assembly.

Loading next visibility...
Identifier
7044, 1973-086AL
Orbit
SSO
Country
Flag of USUS
Related business
Manufacturer
Unknown
Mission
Spacecraft
Bus & Motor
Unknown
Mass
Unknown
Launch date (UTC)
1973-11-06 (52 years ago)
Launch vehicle
Unknown
Launch site
Air Force Western Test Range (AFWTR)
Object type
Payload
Rocket body
Debris
Shape & HBR
Unknown shape, 0.2 m
Radar Cross Section
Medium (>0.1 m² and <1 m²)

Expand to show TLE details & history
Last TLE update: 3 hours ago

TLE from 3 hours ago
0 DELTA 1 DEB
1  7044U 73086AL  25355.51955132 -.00000035  00000-0  90712-4 0  9992
2  7044 102.5218 216.7911 0089217 217.9342 214.0628 12.44524721367166
Epoch: 2025-12-21T12:28Z
TLE epoch observation values (Epoch: 2025-12-21T12:28:09.234Z)
Latitude
67.80617°
Longitude
-93.38109°
Altitude
1,557.353 km
Speed
7.068 km/s
True Right ascension
12h 15m 57s
True Declination
67° 41' 52"
Sunlit
Object was in daylight at epoch
Visualization orbit readout
Latitude
Unknown
Longitude
Unknown
Altitude
Unknown
Speed
Unknown
Apparent Right ascension
Unknown
Apparent Declination
Unknown
Sunlit
N/A
Visualization observer readout
Local Sidereal Time
14:40:27
Azimuth
Unknown
Elevation
Unknown
Doppler factor
Unknown
Orbital elements
Apogee altitude
1,555.234 km
Perigee altitude
1,414.927 km
Semi-major axis
7,863.218 km
Eccentricity
0.00892
Inclination
102.5218°
RAAN
216.7911°
Arg. of periapsis
217.9342°
True anomaly
213.49543°
Mean anomaly
214.0628°
Eccentric anomaly
213.77859°
Mean motion
3.11274 °/min
Orbital period
115.65 mins
BSTAR
0.000090712
Loading maneuver chart data...
Computing Atmospheric mass density...
Loading historical data...
Loading historical data...
Loading historical data...
Loading historical data...
Loading historical data...
Loading historical data...
Loading historical data...

Documentation

Showing up to 5 results
|